Orbital Elements at Epoch 2459200.5 (2020-Dec-17.0) TDB
Reference: JPL 25 (heliocentric ecliptic J2000)
Element | Value | Uncertainty (1-sigma) | Units |
e | .09836282711358439 | 3.933e-08 | |
a | 2.98968676210194 | 1.9651e-08 | au |
q | 2.695612719997535 | 1.2386e-07 | au |
i | 11.83153683130407 | 4.466e-06 | deg |
node | 84.71114835312751 | 2.0907e-05 | deg |
peri | 228.7802019577684 | 3.1351e-05 | deg |
M | 5.276881899607483 | 2.5073e-05 | deg |
tp | 2459172.823457599712 (2020-Nov-19.32345760) | 0.00013141 | TDB |
period | 1888.152028728326 5.17 | 1.8616e-05 5.097e-08 | d yr |
n | .1906626132443692 | 1.8799e-09 | deg/d |
Q | 3.283760804206345 | 2.1584e-08 | au |
|
| | Orbit Determination Parameters
Additional Information
|